logo tempoitalia

Diretta Meteo Kelibia, Tunisiavenerdì 14 giugno ore 18:00

Mappa
Sereno 25 °C Sereno 24 Ore: T.min 19 T.max 29
Ponente Nord/Nord-Est Km/h 9.3 Punto di rugiada: 14 °C Umidità: 50% Visibilità: 10 Km
Il sole sorge alle: 04:54 Il sole tramonta alle: 19:37
14 Giugno 2024 18:00 tempo osservato: Sereno Sereno 25 50 1018 vento: Nord N/NE 9.3
14 Giugno 2024 17:00 tempo osservato: Sereno Sereno 25 53 1018 vento: Nord N 13
14 Giugno 2024 16:00 tempo osservato: Sereno Sereno 26 54 1018 vento: Nord N 13
14 Giugno 2024 15:00 tempo osservato: Sereno Sereno 27 44 1019 vento: Nord N 16.7
14 Giugno 2024 14:00 tempo osservato: Sereno Sereno 28 39 1019 vento: Nord N 11.1
14 Giugno 2024 13:00 tempo osservato: Sereno Sereno 29 35 1019 vento: Nord N 7.4
14 Giugno 2024 12:00 tempo osservato: Sereno Sereno 27 39 1019 vento: Nord N 7.4
14 Giugno 2024 11:00 tempo osservato: Sereno Sereno 27 39 1020 vento: Nord N 5.5
14 Giugno 2024 10:00 tempo osservato: Sereno Sereno 26 39 1020 vento: Nord N 7.4
14 Giugno 2024 09:00 tempo osservato: Sereno Sereno 25 41 1020 vento: Nord N 7.4
14 Giugno 2024 08:00 tempo osservato: Sereno Sereno 24 50 1020 vento: Nord N 7.4
14 Giugno 2024 07:00 tempo osservato: Sereno Sereno 22 64 1019 vento: Nord O/NO 7.4
14 Giugno 2024 06:00 tempo osservato: Sereno Sereno 20 77 1019 vento: Nord N 5.5
14 Giugno 2024 05:00 tempo osservato: Sereno Sereno 19 82 1019 vento: Nord N 5.5
14 Giugno 2024 04:00 tempo osservato: Sereno Sereno 19 82 1019 vento: Nord O/NO 7.4
14 Giugno 2024 03:00 tempo osservato: Sereno Sereno 20 77 1019 vento: Nord O/NO 11.1
14 Giugno 2024 02:00 tempo osservato: Sereno Sereno 20 82 1019 vento: Nord O 9.3
14 Giugno 2024 01:00 tempo osservato: Sereno Sereno 20 77 1019 vento: Nord O 9.3
14 Giugno 2024 00:00 tempo osservato: Sereno Sereno 21 73 1019 vento: Nord O 11.1
13 Giugno 2024 23:00 tempo osservato: Sereno Sereno 21 73 1019 vento: Nord O/NO 11.1
13 Giugno 2024 22:00 tempo osservato: Sereno Sereno 22 64 1019 vento: Nord O/NO 9.3
13 Giugno 2024 21:00 tempo osservato: Sereno Sereno 22 64 1019 vento: Nord N 5.5
13 Giugno 2024 20:00 tempo osservato: Sereno Sereno 23 56 1019 vento: Nord N 7.4
13 Giugno 2024 19:00 tempo osservato: Sereno Sereno 23 64 1019 vento: Nord N 9.3